Location: A�t �Alizem
(31.2076°N, 8.7872°W)
Time: 08:30:28
(UTC+00:00)

Envisat - Pass Details

Date: 02 October 2021
Orbit: 764 x 766 km, 98.2° (Epoch: 25 October)

Event Time Altitude Azimuth Distance (km) Brightness Sun altitude
Rises 04:41:10 0° 30° (NNE) 3,231 6.8 -23.9°
Reaches altitude 10° 04:44:00 10° 46° (NE) 2,301 6.2 -23.3°
Maximum altitude 04:47:50 21° 95° (E) 1,644 5.5 -22.5°
Drops below altitude 10° 04:51:39 10° 145° (SE) 2,291 5.8 -21.7°
Sets 04:54:27 0° 160° (SSE) 3,213 6.4 -21.1°
